Погода в Махачкале

Погода в Махачкале : погода сейчас, прогноз погоды и архив. Всё, что Вы хотите узнать о погоде в Махачкале!

Поиск расширенной информации на нашем сайте:

Другие новости

Новости СМИ2

Главная страница сайта

Новости сайта

02.10.2013

Напоминаем, что на нашем новом сайте вы можете получить высокодетализированные прогнозы погоды по пунктам России, СНГ и мира (включающие важные для авиации метеовеличины, такие как направление и скорость ветра, видимость, явления погоды, количество и форма облачности, нижняя и верхняя граница облачности), а также ознакомиться с разнообразными материалами по авиационной метеорологии и подборкой полезных ссылок на эту тему.

Сайт Метеоцентр.Азия посвящён разработке технологий оптимизации авиаметеорологического обслуживания, включая проектирование и перспективное создание нескольких автоматизированных авиаметеорологических систем:
- система выпуска высокодетальных прогностических карт явлений погоды для нижнего воздушного пространства по России и ближнему зарубежью;
- система верификации прогнозов TAF (выпускаемых синоптиками официальных АМСГ РФ и ближнего зарубежья) и AUTOTAF (выпускаемых сайтом Метеоцентр.Азия) - выявление ошибок, онлайн-сопоставление с фактической погодой METAR, автоматическое внесение коррективов в прогнозы при резком отклонении фактической погоды от прогноза, подсчёт оправдываемости прогнозов по элементам и в целом;
- система обработки, анализа и отображения авиаметеорологической информации для применения провайдерами метеорологической информации.

Рекомендуем: Люстра хрустальная интернет.

Погода в Махачкале - сегодня

Время (UTC), дата Ветер
(°,м/с) 
Видим.   Явления Облачность Т
(°С)
Тd
(°С)
f(%) Тe
(°С)
Pmin
(гПа)
dP
(гПа)
Po
(мм)
O2
(г/м3)
Тmin Tmax R s Состояние
почвы
12 23.02.17 130 (ЮВ) 2{11}  10 км    ясно 
+6.4 +1.2 69 +6  1015.2  -0.8  763  300           
15 23.02.17 110 (В) 10 км    4/0 верхняя 
[Ci fib]
+5.1 +1.3 76 +4  1014.8  -0.4  763  302    +11.3       
18 23.02.17 120 (ЮВ) 10 км    4/0 верхняя 
[Ci fib]
+5.3 +0.1 69 +4  1012.3  -2.5  761  301           
21 23.02.17 120 (ЮВ) 10 км    8/4 600 м средняя, верхняя 
[Sc|Ac As|Ci fib]
+4.7 +0.3 73 +4  1010.4  -1.9  759  301           
00 24.02.17 130 (ЮВ) 4{12}  10 км    8/3 600 м средняя, верхняя 
[Sc|Ac As|Ci fib]
+5.8 -0.5 64 +4  1007.1  -3.2  757  299           
03 24.02.17 260 (З) 5{12}  10 км    8/3 600 м средняя, верхняя 
[Sc|Ac As|Ci fib]
+6.2 -0.9 60 +4  1013.6  6.5  762  300  +4.2         
06 24.02.17 290 (З) 4{10}  20000 м    9/5 600 м средняя, верхняя 
[Sc|Ac As|Ci fib]
+8.5 -0.2 54 +7  1017.6  765  299           
09 24.02.17 300 (СЗ) 20000 м    8/3 600 м средняя, верхняя 
[Sc diur, vesp|Ac cast|Ci fib]
+13.4 +4.5 55 +13  1017.3  -0.4  765  293           
12 24.02.17 110 (В) 20000 м    5/3 600 м средняя, верхняя 
[Sc diur, vesp|Ac cast|Ci fib]
+7.8 +3.7 75 +8  1017.4  0.2  765  299           
15 24.02.17 140 (ЮВ) 20000 м    ясно 
+9.4 +2.8 63 +8  1018  0.6  765  298    +13.4       
18 24.02.17 120 (ЮВ) 20000 м    6/0 верхняя 
[Ci fib]
+6.1 +2.9 80 +6  1018.5  0.5  766  301           
21 24.02.17 250 (З) 20000 м    ясно 
+3.6 +1.9 89 +4  1018.3  0.1  765  304           
00 25.02.17 тихо ()   20000 м    ясно 
+2.4 +0.9 90 +2  1017.5  -0.8  765  305           
03 25.02.17 090 (В) 20000 м    ясно 
+3.8 +2.1 89 +3  1017.6  765  304  +1.9         
06 25.02.17 090 (В) 20000 м    ясно 
+5.7 +2.4 79 +5  1018.3  0.7  765  302           
09 25.02.17 110 (В) 20000 м    ясно 
+7.6 +3.8 77 +6  1016.7  -1.6  764  299           
12 25.02.17 100 (В) 6{11}  10 км    ясно 
+6.8 +3.9 82 +5  1014.5  -2.2  763  299           
15 25.02.17 110 (В) 4{12}  20000 м    ясно 
+5.8 +3.7 86 +4  1012.6  -1.9  761  300    +8.3       
18 25.02.17 110 (В) 4000 м  дымка  ясно 
+4.3 +3.4 94 +3  1010  -2.6  759  301           
21 25.02.17 120 (ЮВ) 4000 м  дымка  ясно 
+2.9 +2 94 +2  1008.1  -1.9  758  302           
00 26.02.17 290 (З) 4000 м  дымка  ясно 
+2.3 +1.3 93 +1  1008.7  0.6  758  303           
03 26.02.17 290 (З) 8-13{14}  10 км    3/0 верхняя 
[Ci fib]
+10.8 +2.8 58 +9  1014.4  5.6  762  295  +0.8         
06 26.02.17 300 (СЗ) 10-18{18}  10 км    10/8 600 м средняя 
[Sc|Ac As]
+7 +0.9 65 +4  1020.3  5.9  767  301           
09 26.02.17 310 (СЗ) 11-18{21}  20000 м    н/о 
+5.6 -1.1 62 +2  1023.2  769  304           
12 26.02.17 310 (СЗ) 10-16{21}  20000 м    10/8 600 м средняя 
[Sc|Ac As]
+5.4 -4.9 47 +2  1026  2.7  771  305           
Время (UTC), дата Ветер
(°,м/с) 
Видим.   Явления Облачность Т
(°С)
Тd
(°С)
f(%) Тe
(°С)
Pmin
(гПа)
dP
(гПа)
Po
(мм)
O2
(г/м3)
Тmin Tmax R s Состояние
почвы

Для получения пояснительной информации подведите курсор к названию столбца.

ПОГОДА в Махачкале - архив

Всё, что Вы хотите узнать о погоде в Махачкале - удобно и подробно!

Выберите нужную дату (начиная с 1 января 2015* года) и нажмите кнопку "Найти".
Будут отображены архивные сводки погоды по пункту Махачкала, начиная с указанной даты.


Отображать данные в формате CSV (для использования в таблицах Excel)


Внимание! Наш архив погоды предназначен исключительно для личного некоммерческого использования в познавательных целях. Если Вам необходимы официальные справки о состоянии погоды (для производственных, юридических, коммерческих и т.п. целей), обращайтесь в органы Росгидромета.

*Примечание: данная дата относится к архиву по метеостанциям СССР (Россия, СНГ, Балтия).
Архив по метеостанциям Зарубежной Европы и Азии (кроме Китая) хранится 10 дней, по другим регионам земного шара (Китай, Африка, Америка, Австралия, Океания) - 1 день.

Махачкала - район местоположения метеостанции


Название, широта, долгота, высота метеостанции:
Махачкала 42.8°ш. 47.6°д. 32 м над ур. моря [Российская Федерация]

Дополнительная информация

В oтличие oт бoльшинства пoгoдных сайтoв мы публикуем пoдрoбную метеoинфoрмацию в детальнoм прoфессиoнальнoм фoрмате.

Характеристики температуры и влажнoсти вoздуха измеряются на высoте 2 м в тени вдали oт зданий и деревьев.
Скoрoсть ветра измеряется на высoте 10 м (на урoвне рoста челoвека скoрoсть ветра ниже в 1.5-2 раза). Если метеoстанция нахoдится в гoрoде или в лесу, тo скoрoсть ветра занижена на 2-4 м/с пo сравнению с oткрытым местoм. Скoрoсть ветра над акватoриями крупных рек и oзёр, а также на вершинах хoлмoв на 2-5 м/с выше, чем в oбычных услoвиях.
Атмoсфернoе давление в разных тoчках местнoсти мoжет значительнo oтличаться oт давления на метеoстанции, в зависимoсти oт услoвий рельефа (при пoдъёме на 10 м давление пoнижается примернo на 1 мм рт.ст.).